Tracking 28790 objects as of 19-Apr-2024
HD Live streaming from Space Station
objects crossing your sky now

THORAD AGENA D DEB

Track THORAD AGENA D DEB now!
10-day predictions


NORAD ID: 4948
Int'l Code: 1970-025GJ
Perigee: 923.3 km
Apogee: 1,236.0 km
Inclination: 99.5 °
Period: 106.7 minutes
Semi major axis: 7450 km
RCS: 0.0194 m2 (small)
Launch date: April 8, 1970
Source: United States (US)
Launch site: AIR FORCE WESTERN TEST RANGE (AFWTR)

Note: This is SATELLITE DEBRIS
Your satellite tracking list
Your tracking list is empty




NASA's NSSDC Master Catalog

Two Line Element Set (TLE):
1  4948U 70025GJ  24110.23528580  .00003036  00000-0  42264-2 0  9992
2  4948  99.4636 345.9833 0209835 323.7148 157.8372 13.49922066632257
Source of the keplerian elements: AFSPC